Weather History for Albuquerque Double Eagle, NM

Change the Weather History Date:

Thursday, December 19, 2013

  Actual Average Record
Temperature  
Mean Temperature 36 °F -  
Max Temperature 51 °F - - ()
Min Temperature 21 °F - - ()
Degree Days  
Heating Degree Days 29    
Moisture  
Dew Point 21 °F    
Average Humidity 60    
Maximum Humidity 86    
Minimum Humidity 35    
Precipitation  
Precipitation 0.00 in - - ()
Sea Level Pressure  
Sea Level Pressure 29.84 in    
Wind  
Wind Speed 3 mph (SW)    
Max Wind Speed 14 mph    
Max Gust Speed -    
Visibility 10 miles    
Events      
T = Trace of Precipitation, MM = Missing Value Source: NWS Daily Summary

Daily Weather History Graph

Daily Weather History Graph

Search for Another Location

Airport:

Trip Planner

Search our weather history database for the weather conditions in past years. The results will help you decide how hot, cold, wet, or windy it might be!

Date:

Astronomy

Dec. 19, 2013 Rise Set
Actual Time 7:10 AM MST 4:58 PM MST
Civil Twilight 6:42 AM MST 5:26 PM MST
Nautical Twilight 6:10 AM MST 5:58 PM MST
Astronomical Twilight 5:39 AM MST 6:29 PM MST
Moon 7:21 PM MST 8:35 AM MST
Length of Visible Light 10h 43m
Length of Day
9h 47m
Waning Gibbous, 95% of the Moon is Illuminated
Dec 19
Waning Gibbous
Dec 25
Last Quarter
Jan 1
New
Jan 7
First Quarter
Jan 15
Full

Hourly Weather History & Observations

Time (MST) Temp. Windchill Dew Point Humidity Pressure Visibility Wind Dir Wind Speed Gust Speed Precip Events Conditions
12:15 AM 31.5 °F - 20.3 °F 63% 29.96 in 10.0 mi Calm Calm - N/A   Clear
12:35 AM 31.1 °F - 20.7 °F 65% 29.94 in 10.0 mi Calm Calm - N/A   Scattered Clouds
12:55 AM 31.8 °F 28.5 °F 22.6 °F 69% 29.92 in 10.0 mi ENE 3.5 mph - N/A   Scattered Clouds
1:35 AM 32.4 °F - 23.0 °F 68% 29.91 in 10.0 mi Calm Calm - N/A   Scattered Clouds
1:55 AM 32.0 °F - 22.6 °F 68% 29.91 in 10.0 mi Calm Calm - N/A   Clear
2:15 AM 32.4 °F 27.9 °F 22.6 °F 67% 29.90 in 10.0 mi North 4.6 mph - N/A   Clear
2:35 AM 32.4 °F - 23.4 °F 69% 29.90 in 10.0 mi Calm Calm - N/A   Mostly Cloudy
2:55 AM 33.3 °F - 23.5 °F 68% 29.88 in 10.0 mi Calm Calm - N/A   Mostly Cloudy
3:15 AM 30.6 °F 27.1 °F 21.4 °F 69% 29.90 in 10.0 mi WSW 3.5 mph - N/A   Scattered Clouds
3:35 AM 28.0 °F - 20.3 °F 73% 29.90 in 10.0 mi Calm Calm - N/A   Clear
3:55 AM 25.5 °F - 19.2 °F 77% 29.89 in 10.0 mi Calm Calm - N/A   Clear
4:15 AM 25.7 °F 19.0 °F 18.9 °F 75% 29.88 in 10.0 mi NNW 5.8 mph - N/A   Clear
4:35 AM 25.2 °F 20.9 °F 18.7 °F 76% 29.88 in 10.0 mi NNW 3.5 mph - N/A   Clear
5:50 AM 21.2 °F - 17.6 °F 86% 29.87 in 10.0 mi Calm Calm - N/A   Clear
6:48 AM 21.2 °F - 15.8 °F 80% 29.86 in 10.0 mi Calm Calm - N/A   Clear
7:48 AM 24.8 °F - 19.4 °F 80% 29.86 in 10.0 mi Calm Calm - N/A   Clear
8:48 AM 39.2 °F 35.0 °F 24.8 °F 56% 29.87 in 10.0 mi SSE 5.8 mph - N/A   Clear
9:48 AM 39.2 °F - 24.8 °F 56% 29.88 in 10.0 mi Calm Calm - N/A   Scattered Clouds
10:48 AM 46.4 °F 44.3 °F 24.8 °F 43% 29.87 in 10.0 mi SE 4.6 mph - N/A   Scattered Clouds
11:48 AM 46.4 °F 44.3 °F 24.8 °F 43% 29.83 in 10.0 mi South 4.6 mph - N/A   Scattered Clouds
12:48 PM - - - N/A% 29.78 in 10.0 mi North - - N/A   Scattered Clouds
1:48 PM 51.8 °F - 24.8 °F 35% 29.76 in 10.0 mi SSE 4.6 mph - N/A   Scattered Clouds
2:50 PM 51.8 °F - 24.8 °F 35% 29.75 in 10.0 mi SE 10.4 mph - N/A   Partly Cloudy
3:50 PM 51.8 °F - 24.8 °F 35% 29.75 in 10.0 mi SSE 6.9 mph - N/A   Partly Cloudy
4:50 PM 44.6 °F 40.7 °F 24.8 °F 46% 29.75 in 10.0 mi SSE 6.9 mph - N/A   Partly Cloudy
5:50 PM 39.2 °F - 21.2 °F 49% 29.76 in 10.0 mi Calm Calm - N/A   Partly Cloudy
6:50 PM 39.2 °F 35.0 °F 21.2 °F 49% 29.75 in 10.0 mi Variable 5.8 mph - N/A   Scattered Clouds
7:50 PM 32.0 °F 26.4 °F 19.4 °F 60% 29.77 in 10.0 mi Variable 5.8 mph - N/A   Partly Cloudy
8:50 PM 35.6 °F 27.1 °F 19.4 °F 52% 29.78 in 10.0 mi SW 12.7 mph - N/A   Partly Cloudy
9:15 PM 36.5 °F 27.8 °F 18.3 °F 48% 29.78 in 10.0 mi WSW 13.8 mph - N/A   Clear
9:35 PM 35.6 °F 27.5 °F 17.6 °F 48% 29.79 in 10.0 mi WSW 11.5 mph - N/A   Clear
9:55 PM 34.2 °F 25.7 °F 17.4 °F 50% 29.80 in 10.0 mi WSW 11.5 mph - N/A   Clear
10:15 PM 32.9 °F 25.3 °F 17.8 °F 54% 29.80 in 10.0 mi WSW 9.2 mph - N/A   Clear
10:35 PM 32.5 °F 23.2 °F 19.2 °F 58% 29.80 in 10.0 mi West 12.7 mph - N/A   Clear
10:55 PM 32.9 °F 24.1 °F 19.6 °F 58% 29.80 in 10.0 mi West 11.5 mph - N/A   Clear
11:15 PM 31.5 °F 24.2 °F 19.0 °F 60% 29.81 in 10.0 mi NE 8.1 mph - N/A   Clear
11:35 PM 32.5 °F 28.1 °F 19.9 °F 60% 29.80 in 10.0 mi NNW 4.6 mph - N/A   Clear
11:55 PM 31.8 °F 27.3 °F 19.4 °F 60% 29.80 in 10.0 mi North 4.6 mph - N/A   Clear